Tracking 29892 objects as of 21-Nov-2024
HD Live streaming from Space Station
objects crossing your sky now

STARLINK-2356

Track STARLINK-2356 now!
10-day predictions
STARLINK-2356 is classified as:


NORAD ID: 47896
Int'l Code: 2021-021AN
Perigee: 553.5 km
Apogee: 555.1 km
Inclination: 53.1 °
Period: 95.6 minutes
Semi major axis: 6925 km
RCS: Unknown
Launch date: March 14, 2021
Source: United States (US)
Launch site: AIR FORCE EASTERN TEST RANGE (AFETR)
Your satellite tracking list
Your tracking list is empty




NASA's NSSDC Master Catalog

Two Line Element Set (TLE):
1 47896U 21021AN  24325.98618398  .00017052  00000-0  11599-2 0  9990
2 47896  53.0526 253.1527 0001150  45.1251 314.9831 15.06431134204101
Source of the keplerian elements: AFSPC